| time (UTC) | temp F | wind direction | speed MPH | gust MPH | rain 1hr in | rain 24hr in | rain mn in | humidity % | barometer mb |
| 20260504201329 | 76 | 265 | 2.0 | 5.0 | 0.00 | 0.00 | 0.00 | 36 | 1004.6 |
| 20260504200827 | 76 | 259 | 4.0 | 7.0 | 0.00 | 0.00 | 0.00 | 37 | 1004.6 |
| 20260504200328 | 75 | 21 | 1.0 | 2.0 | 0.00 | 0.00 | 0.00 | 38 | 1004.6 |
| 20260504195827 | 74 | 263 | 3.0 | 6.0 | 0.00 | 0.00 | 0.00 | 39 | 1004.8 |
| 20260504195329 | 74 | 279 | 2.0 | 6.0 | 0.00 | 0.00 | 0.00 | 41 | 1005.0 |
| 20260504194828 | 74 | 253 | 2.0 | 6.0 | 0.00 | 0.00 | 0.00 | 39 | 1005.3 |
| 20260504194329 | 74 | 292 | 4.0 | 5.0 | 0.00 | 0.00 | 0.00 | 40 | 1005.1 |
| 20260504193829 | 74 | 285 | 6.0 | 12.0 | 0.00 | 0.00 | 0.00 | 39 | 1005.0 |
| 20260504193328 | 74 | 263 | 3.0 | 8.0 | 0.00 | 0.00 | 0.00 | 39 | 1005.3 |
| 20260504192415 | 74 | 263 | 2.0 | 4.0 | 0.00 | 0.00 | 0.00 | 41 | 1005.4 |
| 20260504191828 | 74 | 273 | 4.0 | 9.0 | 0.00 | 0.00 | 0.00 | 40 | 1005.1 |
| 20260504191327 | 73 | 237 | 3.0 | 6.0 | 0.00 | 0.00 | 0.00 | 40 | 1005.4 |
| 20260504190829 | 72 | 258 | 4.0 | 8.0 | 0.00 | 0.00 | 0.00 | 44 | 1005.4 |
| 20260504190327 | 72 | 258 | 3.0 | 4.0 | 0.00 | 0.00 | 0.00 | 44 | 1005.7 |
| 20260504185827 | 72 | 301 | 2.0 | 5.0 | 0.00 | 0.00 | 0.00 | 42 | 1005.9 |
| 20260504185328 | 72 | 266 | 1.0 | 3.0 | 0.00 | 0.00 | 0.00 | 43 | 1005.7 |
| 20260504184828 | 72 | 235 | 7.0 | 11.0 | 0.00 | 0.00 | 0.00 | 41 | 1005.6 |
| 20260504184327 | 72 | 260 | 3.0 | 7.0 | 0.00 | 0.00 | 0.00 | 43 | 1006.2 |
| 20260504183827 | 73 | 268 | 4.0 | 10.0 | 0.00 | 0.00 | 0.00 | 42 | 1005.8 |
| 20260504183328 | 73 | 260 | 4.0 | 7.0 | 0.00 | 0.00 | 0.00 | 42 | 1005.8 |
| 20260504182829 | 74 | 258 | 5.0 | 16.0 | 0.00 | 0.00 | 0.00 | 42 | 1005.7 |
| 20260504182331 | 73 | 263 | 4.0 | 7.0 | 0.00 | 0.00 | 0.00 | 43 | 1005.7 |
| 20260504181827 | 73 | 255 | 4.0 | 8.0 | 0.00 | 0.00 | 0.00 | 44 | 1005.8 |
| 20260504181328 | 72 | 244 | 4.0 | 7.0 | 0.00 | 0.00 | 0.00 | 42 | 1005.7 |
| 20260504180827 | 72 | 247 | 3.0 | 5.0 | 0.00 | 0.00 | 0.00 | 43 | 1006.3 |
| 20260504180328 | 72 | 259 | 6.0 | 10.0 | 0.00 | 0.00 | 0.00 | 43 | 1005.7 |
| 20260504175827 | 72 | 271 | 4.0 | 7.0 | 0.00 | 0.00 | 0.00 | 43 | 1005.9 |
| 20260504175327 | 72 | 259 | 4.0 | 8.0 | 0.00 | 0.00 | 0.00 | 43 | 1005.9 |
| 20260504174828 | 72 | 256 | 2.0 | 5.0 | 0.00 | 0.00 | 0.00 | 44 | 1005.9 |
| 20260504174330 | 72 | 275 | 5.0 | 9.0 | 0.00 | 0.00 | 0.00 | 43 | 1006.0 |
| 20260504173827 | 72 | 249 | 3.0 | 8.0 | 0.00 | 0.00 | 0.00 | 44 | 1005.8 |
| 20260504173327 | 71 | 243 | 2.0 | 6.0 | 0.00 | 0.00 | 0.00 | 44 | 1006.1 |
| 20260504172827 | 71 | 288 | 3.0 | 6.0 | 0.00 | 0.00 | 0.00 | 46 | 1005.9 |
| 20260504172330 | 71 | 264 | 6.0 | 13.0 | 0.00 | 0.00 | 0.00 | 43 | 1005.8 |
| 20260504171827 | 70 | 263 | 4.0 | 7.0 | 0.00 | 0.00 | 0.00 | 45 | 1006.0 |
| 20260504171329 | 70 | 248 | 3.0 | 8.0 | 0.00 | 0.00 | 0.00 | 44 | 1006.4 |
| 20260504170827 | 71 | 257 | 5.0 | 9.0 | 0.00 | 0.00 | 0.00 | 43 | 1006.1 |
| 20260504170328 | 71 | 293 | 3.0 | 8.0 | 0.00 | 0.00 | 0.00 | 43 | 1005.8 |
| 20260504160328 | 69 | 274 | 3.0 | 6.0 | 0.00 | 0.00 | 0.00 | 47 | 1006.4 |
| 20260504150828 | 63 | 241 | 5.0 | 9.0 | 0.00 | 0.00 | 0.00 | 49 | 1006.8 |
| 20260504150328 | 63 | 241 | 2.0 | 5.0 | 0.00 | 0.00 | 0.00 | 51 | 1007.4 |
| 20260504141328 | 60 | 262 | 2.0 | 5.0 | 0.00 | 0.00 | 0.00 | 53 | 1006.9 |
| 20260504140828 | 60 | 217 | 2.0 | 5.0 | 0.00 | 0.00 | 0.00 | 52 | 1007.4 |
| 20260504140327 | 60 | 262 | 6.0 | 11.0 | 0.00 | 0.00 | 0.00 | 49 | 1007.3 |
| 20260504110327 | 52 | 212 | 2.0 | 2.0 | 0.00 | 0.00 | 0.00 | 57 | 1007.8 |
| 20260504100328 | 51 | 256 | 2.0 | 2.0 | 0.00 | 0.00 | 0.00 | 55 | 1008.1 |
| 20260504081827 | 51 | 227 | 2.0 | 2.0 | 0.00 | 0.00 | 0.00 | 56 | 1008.7 |
| 20260504081330 | 51 | 352 | 1.0 | 1.0 | 0.00 | 0.00 | 0.00 | 55 | 1008.7 |
| 20260504080827 | 51 | 238 | 2.0 | 3.0 | 0.00 | 0.00 | 0.00 | 56 | 1008.8 |
| 20260504080327 | 51 | 306 | 0.0 | 2.0 | 0.00 | 0.00 | 0.00 | 56 | 1008.7 |
| 20260504070327 | 52 | 4 | 1.0 | 2.0 | 0.00 | 0.00 | 0.00 | 53 | 1008.8 |
| 20260504050327 | 52 | 141 | 0.0 | 1.0 | 0.00 | 0.00 | 0.00 | 58 | 1009.0 |
| 20260504045828 | 52 | 174 | 0.0 | 1.0 | 0.00 | 0.00 | 0.00 | 59 | 1009.0 |
| 20260504045327 | 51 | 128 | 0.0 | 1.0 | 0.00 | 0.00 | 0.00 | 58 | 1009.0 |
| 20260504044827 | 51 | 13 | 0.0 | 2.0 | 0.00 | 0.00 | 0.00 | 61 | 1009.0 |
| 20260504044329 | 51 | 210 | 0.0 | 2.0 | 0.00 | 0.00 | 0.00 | 60 | 1009.1 |
| 20260504043827 | 51 | 327 | 1.0 | 2.0 | 0.00 | 0.00 | 0.00 | 61 | 1009.1 |
| 20260504043327 | 51 | 11 | 1.0 | 1.0 | 0.00 | 0.00 | 0.00 | 59 | 1009.1 |
| 20260504042828 | 51 | 54 | 1.0 | 1.0 | 0.00 | 0.00 | 0.00 | 61 | 1009.1 |
| 20260504042327 | 51 | 289 | 1.0 | 1.0 | 0.00 | 0.00 | 0.00 | 61 | 1009.1 |
| 20260504041827 | 50 | 264 | 0.0 | 1.0 | 0.00 | 0.00 | 0.00 | 63 | 1009.2 |
| 20260504041327 | 50 | 210 | 1.0 | 2.0 | 0.00 | 0.00 | 0.00 | 64 | 1009.2 |
| 20260504040827 | 50 | 231 | 0.0 | 1.0 | 0.00 | 0.00 | 0.00 | 65 | 1009.2 |
| 20260504040327 | 50 | 228 | 0.0 | 1.0 | 0.00 | 0.00 | 0.00 | 67 | 1009.4 |
| 20260504035827 | 50 | 239 | 0.0 | 1.0 | 0.00 | 0.00 | 0.01 | 66 | 1009.4 |
| 20260504035327 | 50 | 261 | 0.0 | 1.0 | 0.00 | 0.00 | 0.01 | 66 | 1009.4 |
| 20260504034827 | 50 | 255 | 1.0 | 2.0 | 0.00 | 0.00 | 0.01 | 70 | 1009.5 |
| 20260504034327 | 50 | 243 | 1.0 | 1.0 | 0.00 | 0.00 | 0.01 | 67 | 1009.5 |
| 20260504033827 | 50 | 168 | 0.0 | 1.0 | 0.00 | 0.00 | 0.01 | 68 | 1009.6 |
| 20260504033328 | 50 | 207 | 1.0 | 1.0 | 0.00 | 0.00 | 0.01 | 67 | 1009.8 |
| 20260504032827 | 50 | 264 | 0.0 | 1.0 | 0.00 | 0.00 | 0.01 | 69 | 1009.7 |
| 20260504032327 | 50 | 329 | 0.0 | 1.0 | 0.00 | 0.00 | 0.01 | 68 | 1009.7 |
| 20260504031828 | 50 | 10 | 0.0 | 0.0 | 0.00 | 0.00 | 0.01 | 69 | 1009.7 |
| 20260504031327 | 50 | 250 | 0.0 | 1.0 | 0.00 | 0.00 | 0.01 | 69 | 1009.7 |
| 20260504030827 | 50 | 291 | 0.0 | 1.0 | 0.00 | 0.00 | 0.01 | 68 | 1009.8 |
| 20260504030327 | 50 | 237 | 0.0 | 1.0 | 0.01 | 0.00 | 0.01 | 68 | 1009.8 |
| 20260504025827 | 50 | 238 | 0.0 | 1.0 | 0.01 | 0.00 | 0.01 | 69 | 1009.9 |
| 20260504025327 | 51 | 185 | 0.0 | 1.0 | 0.01 | 0.00 | 0.01 | 68 | 1009.9 |
| 20260504024827 | 51 | 142 | 0.0 | 1.0 | 0.01 | 0.00 | 0.01 | 67 | 1010.0 |
| 20260504024327 | 51 | 240 | 1.0 | 2.0 | 0.01 | 0.00 | 0.01 | 66 | 1010.0 |
| 20260504023827 | 51 | 264 | 0.0 | 2.0 | 0.01 | 0.00 | 0.01 | 66 | 1010.1 |
| 20260504023327 | 51 | 248 | 2.0 | 6.0 | 0.01 | 0.00 | 0.01 | 67 | 1010.2 |
| 20260504022827 | 51 | 257 | 1.0 | 2.0 | 0.01 | 0.00 | 0.01 | 67 | 1010.3 |
| 20260504022327 | 51 | 248 | 2.0 | 3.0 | 0.01 | 0.00 | 0.01 | 67 | 1010.4 |
| 20260504021829 | 51 | 254 | 2.0 | 6.0 | 0.01 | 0.00 | 0.01 | 68 | 1010.5 |
| 20260504021327 | 51 | 258 | 4.0 | 9.0 | 0.01 | 0.00 | 0.01 | 70 | 1010.6 |
| 20260504020827 | 51 | 226 | 2.0 | 4.0 | 0.00 | 0.00 | 0.01 | 70 | 1010.8 |
| 20260504020328 | 52 | 287 | 2.0 | 5.0 | 0.00 | 0.00 | 0.00 | 69 | 1011.1 |
| 20260504015827 | 53 | 268 | 3.0 | 6.0 | 0.00 | 0.00 | 0.00 | 66 | 1011.2 |
| 20260504015328 | 53 | 353 | 2.0 | 3.0 | 0.00 | 0.00 | 0.00 | 60 | 1011.2 |
| 20260504014827 | 54 | 229 | 2.0 | 4.0 | 0.00 | 0.00 | 0.00 | 57 | 1010.8 |
| 20260504014327 | 54 | 265 | 5.0 | 9.0 | 0.00 | 0.00 | 0.00 | 56 | 1010.5 |
| 20260504013827 | 54 | 256 | 2.0 | 3.0 | 0.00 | 0.00 | 0.00 | 55 | 1010.5 |
| 20260504013328 | 54 | 280 | 2.0 | 4.0 | 0.00 | 0.00 | 0.00 | 54 | 1010.4 |
| 20260504012828 | 55 | 353 | 2.0 | 4.0 | 0.00 | 0.00 | 0.00 | 53 | 1010.2 |
| 20260504012328 | 55 | 272 | 2.0 | 4.0 | 0.00 | 0.00 | 0.00 | 52 | 1010.2 |
| 20260504011827 | 55 | 268 | 3.0 | 7.0 | 0.00 | 0.00 | 0.00 | 52 | 1010.1 |
| 20260504011327 | 55 | 251 | 3.0 | 4.0 | 0.00 | 0.00 | 0.00 | 51 | 1010.0 |
| 20260504010827 | 55 | 261 | 5.0 | 9.0 | 0.00 | 0.00 | 0.00 | 50 | 1009.9 |
| 20260504010327 | 55 | 279 | 2.0 | 5.0 | 0.00 | 0.00 | 0.00 | 50 | 1009.9 |
| 20260504005827 | 55 | 225 | 5.0 | 8.0 | 0.00 | 0.00 | 0.00 | 49 | 1009.7 |
| 20260504005328 | 54 | 263 | 2.0 | 6.0 | 0.00 | 0.00 | 0.00 | 50 | 1009.7 |
| 20260504004827 | 54 | 253 | 5.0 | 11.0 | 0.00 | 0.00 | 0.00 | 50 | 1009.7 |
| 20260504004327 | 53 | 244 | 0.0 | 2.0 | 0.00 | 0.00 | 0.00 | 54 | 1009.8 |
| 20260504003827 | 53 | 282 | 1.0 | 2.0 | 0.00 | 0.00 | 0.00 | 51 | 1009.5 |
| 20260504003327 | 52 | 283 | 2.0 | 5.0 | 0.00 | 0.00 | 0.00 | 55 | 1009.7 |
| 20260504002828 | 52 | 159 | 0.0 | 2.0 | 0.00 | 0.00 | 0.00 | 55 | 1009.7 |
| 20260504002328 | 52 | 20 | 1.0 | 2.0 | 0.00 | 0.00 | 0.00 | 57 | 1009.6 |
| 20260504001827 | 52 | 302 | 1.0 | 2.0 | 0.00 | 0.00 | 0.00 | 58 | 1009.6 |
| 20260504001327 | 53 | 176 | 1.0 | 1.0 | 0.00 | 0.00 | 0.00 | 55 | 1009.6 |
| 20260504000827 | 53 | 217 | 0.0 | 1.0 | 0.00 | 0.00 | 0.00 | 56 | 1009.7 |
| 20260504000327 | 53 | 265 | 1.0 | 1.0 | 0.00 | 0.00 | 0.00 | 54 | 1009.7 |
| 20260503235827 | 53 | 35 | 0.0 | 1.0 | 0.00 | 0.00 | 0.00 | 54 | 1009.6 |
| 20260503235327 | 53 | 221 | 3.0 | 5.0 | 0.00 | 0.00 | 0.00 | 52 | 1009.7 |
| 20260503234827 | 54 | 354 | 1.0 | 2.0 | 0.00 | 0.00 | 0.00 | 52 | 1009.8 |
| 20260503234327 | 54 | 263 | 2.0 | 5.0 | 0.00 | 0.00 | 0.00 | 51 | 1009.9 |
| 20260503233827 | 54 | 230 | 3.0 | 5.0 | 0.00 | 0.00 | 0.00 | 51 | 1009.9 |
| 20260503233327 | 54 | 218 | 2.0 | 4.0 | 0.00 | 0.00 | 0.00 | 50 | 1010.1 |
| 20260503232827 | 54 | 265 | 4.0 | 8.0 | 0.00 | 0.00 | 0.00 | 49 | 1010.0 |
| 20260503232327 | 54 | 266 | 4.0 | 8.0 | 0.00 | 0.00 | 0.00 | 47 | 1009.9 |
| 20260503231827 | 54 | 11 | 2.0 | 3.0 | 0.00 | 0.00 | 0.00 | 48 | 1009.9 |
| 20260503231328 | 54 | 40 | 2.0 | 4.0 | 0.00 | 0.00 | 0.00 | 48 | 1009.8 |
| 20260503230827 | 54 | 288 | 2.0 | 3.0 | 0.00 | 0.00 | 0.00 | 48 | 1009.9 |
| 20260503230327 | 54 | 247 | 1.0 | 3.0 | 0.00 | 0.00 | 0.00 | 47 | 1009.8 |
| 20260503225827 | 55 | 265 | 1.0 | 2.0 | 0.00 | 0.00 | 0.00 | 48 | 1009.7 |
| 20260503225327 | 55 | 287 | 2.0 | 4.0 | 0.00 | 0.00 | 0.00 | 46 | 1009.6 |
| 20260503224827 | 55 | 273 | 2.0 | 4.0 | 0.00 | 0.00 | 0.00 | 46 | 1009.6 |
| 20260503224327 | 55 | 277 | 1.0 | 3.0 | 0.00 | 0.00 | 0.00 | 47 | 1009.5 |
| 20260503223828 | 56 | 265 | 2.0 | 5.0 | 0.00 | 0.00 | 0.00 | 46 | 1009.5 |
| 20260503223327 | 56 | 193 | 1.0 | 2.0 | 0.00 | 0.00 | 0.00 | 45 | 1009.6 |
| 20260503222827 | 56 | 0 | 0.0 | 1.0 | 0.00 | 0.00 | 0.00 | 44 | 1009.5 |
| 20260503222327 | 56 | 255 | 2.0 | 6.0 | 0.00 | 0.00 | 0.00 | 47 | 1009.4 |
| 20260503221827 | 56 | 290 | 2.0 | 2.0 | 0.00 | 0.00 | 0.00 | 45 | 1009.4 |
| 20260503221327 | 55 | 210 | 4.0 | 8.0 | 0.00 | 0.00 | 0.00 | 46 | 1009.5 |
| 20260503220827 | 55 | 261 | 1.0 | 2.0 | 0.00 | 0.00 | 0.00 | 46 | 1009.7 |
| 20260503220327 | 55 | 260 | 1.0 | 3.0 | 0.00 | 0.00 | 0.00 | 47 | 1009.7 |
| 20260503215829 | 56 | 237 | 2.0 | 4.0 | 0.00 | 0.00 | 0.00 | 48 | 1009.7 |
| 20260503215327 | 56 | 327 | 1.0 | 2.0 | 0.00 | 0.00 | 0.00 | 47 | 1009.7 |
| 20260503214827 | 56 | 297 | 2.0 | 3.0 | 0.00 | 0.00 | 0.00 | 47 | 1009.6 |
| 20260503214328 | 56 | 240 | 4.0 | 6.0 | 0.00 | 0.00 | 0.00 | 46 | 1009.6 |
| 20260503213827 | 55 | 334 | 1.0 | 2.0 | 0.00 | 0.00 | 0.00 | 49 | 1009.6 |
| 20260503213327 | 55 | 223 | 2.0 | 3.0 | 0.00 | 0.00 | 0.00 | 48 | 1009.6 |
| 20260503212827 | 55 | 286 | 2.0 | 4.0 | 0.00 | 0.00 | 0.00 | 48 | 1009.7 |
| 20260503212328 | 56 | 0 | 2.0 | 5.0 | 0.00 | 0.00 | 0.00 | 47 | 1009.6 |
| 20260503211827 | 56 | 345 | 2.0 | 5.0 | 0.00 | 0.00 | 0.00 | 47 | 1009.6 |
| 20260503211327 | 57 | 251 | 2.0 | 3.0 | 0.00 | 0.00 | 0.00 | 47 | 1009.6 |
| 20260503210827 | 57 | 273 | 3.0 | 6.0 | 0.00 | 0.00 | 0.00 | 46 | 1009.3 |
| 20260503210327 | 56 | 293 | 2.0 | 3.0 | 0.00 | 0.00 | 0.00 | 47 | 1009.4 |
| 20260503205827 | 56 | 261 | 5.0 | 8.0 | 0.00 | 0.00 | 0.00 | 47 | 1009.7 |
| 20260503205327 | 56 | 282 | 1.0 | 4.0 | 0.00 | 0.00 | 0.00 | 48 | 1009.6 |
| 20260503204827 | 56 | 7 | 2.0 | 3.0 | 0.00 | 0.00 | 0.00 | 47 | 1009.7 |
| 20260503204327 | 56 | 326 | 1.0 | 2.0 | 0.00 | 0.00 | 0.00 | 47 | 1009.8 |
| 20260503203827 | 56 | 46 | 2.0 | 5.0 | 0.00 | 0.00 | 0.00 | 46 | 1009.7 |
| 20260503203327 | 57 | 252 | 4.0 | 9.0 | 0.00 | 0.00 | 0.00 | 45 | 1009.5 |
| 20260503202827 | 56 | 228 | 3.0 | 8.0 | 0.00 | 0.00 | 0.00 | 45 | 1009.2 |
| 20260503202328 | 55 | 276 | 4.0 | 7.0 | 0.00 | 0.00 | 0.00 | 47 | 1009.5 |
| 20260503201827 | 54 | 278 | 2.0 | 3.0 | 0.00 | 0.00 | 0.00 | 47 | 1010.0 |